This is the latest recevied weather packets stored in our database for station/object K8JCL-13. If no packets are shown the sender has not sent any weather packets the latest 10 day(s).
| Time | Temp. | Humidity | Pressure | Rain* | Wind** | Luminosity | Snow |
|---|---|---|---|---|---|---|---|
| 1777860659 | 10.56° C | 76% | 1013.3 hPa | 0 mm | - | 0 W/m² | - |
| 1777860355 | 10.56° C | 78% | 1013.3 hPa | 0 mm | - | 0 W/m² | - |
| 1777860052 | 10.56° C | 78% | 1013.4 hPa | 0 mm | - | 0 W/m² | - |
| 1777859749 | 10.56° C | 77% | 1013.2 hPa | 0 mm | - | 0 W/m² | - |
| 1777859444 | 10.56° C | 76% | 1013.3 hPa | 0 mm | - | 0 W/m² | - |
| 1777859141 | 10.56° C | 79% | 1013.2 hPa | 0 mm | - | 0 W/m² | - |
| 1777858838 | 10.56° C | 77% | 1012.9 hPa | 0 mm | - | 0 W/m² | - |
| 1777858536 | 10.56° C | 77% | 1013.1 hPa | 0 mm | - | 0 W/m² | - |
| 1777858232 | 10.56° C | 75% | 1013.2 hPa | 0 mm | - | 0 W/m² | - |
| 1777857929 | 10.56° C | 77% | 1012.8 hPa | 0 mm | - | 0 W/m² | - |
| 1777857622 | 10.56° C | 77% | 1012.9 hPa | 0 mm | - | 0 W/m² | - |
| 1777857318 | 10.56° C | 78% | 1012.7 hPa | 0 mm | - | 0 W/m² | - |
| 1777857014 | 10.56° C | 77% | 1013.1 hPa | 0 mm | - | 0 W/m² | - |
| 1777856710 | 10.56° C | 77% | 1013.2 hPa | 0 mm | - | 0 W/m² | - |
| 1777856406 | 10.56° C | 76% | 1013.2 hPa | 0 mm | - | 0 W/m² | - |
| 1777856103 | 10.56° C | 76% | 1012.9 hPa | 0 mm | - | 0 W/m² | - |
| 1777855801 | 10.56° C | 76% | 1013.1 hPa | 0 mm | - | 0 W/m² | - |
| 1777855498 | 10.56° C | 77% | 1013.5 hPa | 0 mm | - | 0 W/m² | - |
| 1777855195 | 10.56° C | 76% | 1013.2 hPa | 0 mm | - | 1 W/m² | - |
| 1777854891 | 10.56° C | 75% | 1013.3 hPa | 0 mm | - | 1 W/m² | - |
| 1777854588 | 10.56° C | 76% | 1012.8 hPa | 0 mm | - | 4 W/m² | - |
| 1777854285 | 10.56° C | 75% | 1013.2 hPa | 0 mm | - | 6 W/m² | - |
| 1777853983 | 10.56° C | 77% | 1012.9 hPa | 0 mm | - | 7 W/m² | - |
| 1777853680 | 10.56° C | 75% | 1012.9 hPa | 0 mm | - | 8 W/m² | - |
| 1777853376 | 10.56° C | 77% | 1013.2 hPa | 0 mm | - | 12 W/m² | - |
* Rain latest hour (hover to see other rain measurements)
** Current wind speed in m/s (hover to see current wind gust speed)